Weather Roundup
Issued by NWS Chicago, IL

Home | Current Version | Previous Version | Text Only | Print | Product List | Glossary On
Versions: 1 2 3 4 5 6 7 8 9 10 11 12 13 14 15 16 17 18 19 20 21 22 23 24 25 26 27 28 29 30 31 32 33 34 35 36 37 38 39 40 41 42 43 44 45 46 47 48 49 50
000
NZUS59 KLOT 310604
HRRLOT

CHICAGO AREA WEATHER ROUNDUP
NATIONAL WEATHER SERVICE CHICAGO/ROMEOVILLE IL
100 AM CDT SUN JUL 31 2016

NOTE: "FAIR" INDICATES FEW OR NO CLOUDS BELOW 12,000 FEET WITH NO
SIGNIFICANT WEATHER AND/OR OBSTRUCTIONS TO VISIBILITY.

* THESE STATIONS ARE NOT UNDER NWS QUALITY CONTROL. THEY ALSO MAY NOT
  REPORT WEATHER SUCH AS PRECIPITATION OR FOG.

ILZ005-006-012>014-019>023-310700-
NORTHEAST ILLINOIS

CITY           SKY/WX    TMP DP  RH WIND       PRES   REMARKS
OHARE          PTCLDY    69  64  84 N3        30.00S
6HR MIN TEMP:  68; 6HR MAX TEMP:  73;

MIDWAY         PTCLDY    73  65  75 E6        30.00S
6HR MIN TEMP:  72; 6HR MAX TEMP:  74;

AURORA         CLEAR     63  62  97 NW3       30.02S FOG
6HR MIN TEMP:  63; 6HR MAX TEMP:  78;

LANSING*       CLEAR     69  64  86 CALM      30.00S
WAUKEGAN       CLEAR     63  62  97 CALM      30.01R
6HR MIN TEMP:  63; 6HR MAX TEMP:  71;

DUPAGE AIRPORT CLEAR     65  61  87 CALM      30.01S
6HR MIN TEMP:  65; 6HR MAX TEMP:  74;

WHEELING       CLEAR     69  64  84 CALM      30.02R
6HR MIN TEMP:  68; 6HR MAX TEMP:  72;

KANKAKEE*      CLOUDY    67  65  93 CALM      30.01S
MORRIS*        CLEAR     64  63  95 CALM      30.00S
NORTHERLY ISL    N/A     71  65  81 NE8         N/A
$$

WIZ051-052-058>065-066-070>072-310700-
SOUTHEAST WISCONSIN

CITY           SKY/WX    TMP DP  RH WIND       PRES   REMARKS
MILWAUKEE      PTCLDY    68  65  90 N6        30.02S
6HR MIN TEMP:  68; 6HR MAX TEMP:  72;

KENOSHA*       PTCLDY    64  62  93 N5        30.02S
RACINE*        MOCLDY    66  64  93 N5        30.03S
BURLINGTON     CLEAR     58  57  97 NW5       30.02S
WAUKESHA       CLEAR     59  55  88 CALM      30.04S
$$

INZ001>003-010>013-019-020-310700-
NORTHWEST INDIANA

CITY           SKY/WX    TMP DP  RH WIND       PRES   REMARKS
GARY*          CLEAR     70  68  95 NE3       30.01R
6HR MIN TEMP:  70; 6HR MAX TEMP:  73;

MICHIGAN CITY* NOT AVBL
RENSSELAER*    NOT AVBL
VALPARAISO     CLEAR     66  64  93 CALM      30.00S
$$

LMZ740>746-310700-
SOUTHERN LAKE MICHIGAN

STATION/POSITION TIME  SKY/WX   TEMP WIND        PRES    VSBY
                                AIR  DIR/SP/G
                 (UTC)          (F)  (DEG/KT/KT) (MB)    (MI)
HARRISON CRIB    0520            73   60/ 11/ 11   N/A
BURNHAM HARBOR   0600            71   50/  5/ 10   N/A
CALUMET HARBOR   0500            72   40/  6/  8 1015.4S
BURNS HARBOR     0502            67   70/  4/  9 1016.3F
MICHIGAN CITY    0500            67   40/  4/  4   N/A
$$

ABBREVIATIONS USED IN REMARKS
   TC - TEMPERATURE IN CELSIUS
  WCI - WIND CHILL INDEX
   HX - HEAT INDEX
  VSB - VISIBILITY
$$




USA.gov is the U.S. government's official web portal to all federal, state and local government web resources and services.